sat.trackr.live / text

‹ back to catalog

STARLINK-35110

NORAD 65539 · 2025-200V

PAYLOAD ACTIVE UNKNOWN

§ Identity

Operator
Country
US
Launch date
2025-09-06
Launch site
AFWTR
Launch vehicle
Mass (kg)
RCS (m²)

Purposes: comms

External: N2YO · Heavens-Above · Gunter

§ Orbital elements

Epoch: 2026-05-25T04:13:33.127104Z

Period
95.64 min
Inclination
97.4528°
Eccentricity
0.0002102
Mean motion
15.05624909 rev/d
Perigee alt
548.1 km
Apogee alt
551.0 km
Semi-major
6,927.7 km
B*
-7.0839e-4
RAAN
214.8824°
Arg perigee
197.2257°
Mean anomaly
162.8899°
Rev number
4,064

§ Raw data

STARLINK-351101 65539U 25200V   26145.17607786 -.00010258  00000+0 -70839-3 0  99942 65539  97.4528 214.8824 0002102 197.2257 162.8899 15.05624909 40640

JSON: /api/v1/satellites/65539 · /tle

For live sub-satellite position, see the globe view (requires WebGL).

§ Visibility from observer

Set your observer location to see the next 7 days of passes ≥ 10°. The values pass through the URL so the page stays shareable.

No JS? Fill the form by hand. The geolocation button needs JavaScript.